TimeEDT,TemperatureF,Dew PointF,Humidity,Sea Level PressureIn,VisibilityMPH,Wind Direction,Wind SpeedMPH,Gust SpeedMPH,PrecipitationIn,Events,Conditions,WindDirDegrees,DateUTC
12:15 AM,68.0,66.4,95,30.00,10.0,SSE,6.9,-,N/A,,Clear,160,2013-04-19 04:15:00
12:35 AM,67.8,66.6,96,29.99,10.0,SSE,5.8,-,N/A,,Clear,160,2013-04-19 04:35:00
12:55 AM,67.6,66.6,96,29.99,10.0,SSE,5.8,-,N/A,,Clear,150,2013-04-19 04:55:00
1:15 AM,67.3,66.4,97,29.98,10.0,SSE,5.8,-,N/A,,Clear,160,2013-04-19 05:15:00
1:35 AM,67.1,66.4,98,29.97,10.0,SSE,5.8,-,N/A,,Clear,160,2013-04-19 05:35:00
1:55 AM,67.1,66.4,98,29.96,10.0,SSE,6.9,-,N/A,,Clear,160,2013-04-19 05:55:00
2:15 AM,67.1,66.4,98,29.96,10.0,South,4.6,-,N/A,,Clear,170,2013-04-19 06:15:00
2:35 AM,67.1,66.4,98,29.95,10.0,SSE,5.8,-,N/A,,Clear,160,2013-04-19 06:35:00
2:55 AM,66.9,66.6,99,29.94,10.0,SSE,5.8,-,N/A,,Clear,160,2013-04-19 06:55:00
3:15 AM,66.7,66.6,99,29.93,10.0,South,4.6,-,N/A,,Clear,170,2013-04-19 07:15:00
3:35 AM,66.4,66.6,100,29.94,10.0,South,4.6,-,N/A,,Clear,170,2013-04-19 07:35:00
3:55 AM,66.4,66.6,100,29.93,10.0,South,5.8,-,N/A,,Clear,170,2013-04-19 07:55:00
4:15 AM,66.2,66.4,100,29.93,10.0,South,4.6,-,N/A,,Scattered Clouds,180,2013-04-19 08:15:00
4:35 AM,66.2,66.4,100,29.92,10.0,South,8.1,-,N/A,,Scattered Clouds,170,2013-04-19 08:35:00
4:55 AM,66.4,66.6,100,29.92,10.0,South,4.6,-,N/A,,Clear,170,2013-04-19 08:55:00
5:15 AM,66.4,66.6,100,29.92,10.0,South,4.6,-,N/A,,Mostly Cloudy,180,2013-04-19 09:15:00
5:35 AM,66.4,66.6,100,29.92,10.0,South,5.8,-,N/A,,Mostly Cloudy,180,2013-04-19 09:35:00
5:55 AM,66.4,66.6,100,29.92,10.0,South,3.5,-,N/A,,Overcast,180,2013-04-19 09:55:00
6:15 AM,66.6,66.7,100,29.93,10.0,South,3.5,-,N/A,,Overcast,190,2013-04-19 10:15:00
6:55 AM,-9999,-9999,N/A,29.93,10.0,South,8.1,-,N/A,,Overcast,190,2013-04-19 10:55:00
7:15 AM,67.1,67.1,100,29.93,10.0,South,6.9,-,N/A,,Overcast,180,2013-04-19 11:15:00
7:35 AM,67.1,67.3,100,29.95,10.0,South,8.1,18.4,N/A,,Overcast,190,2013-04-19 11:35:00
7:55 AM,67.5,67.6,100,29.95,10.0,South,5.8,-,N/A,,Mostly Cloudy,180,2013-04-19 11:55:00
8:15 AM,68.4,68.0,99,29.96,10.0,South,9.2,-,N/A,,Clear,190,2013-04-19 12:15:00
8:35 AM,69.6,68.0,95,29.96,10.0,SSW,6.9,-,N/A,,Clear,200,2013-04-19 12:35:00
8:55 AM,70.9,68.5,92,29.96,10.0,SSW,9.2,-,N/A,,Scattered Clouds,200,2013-04-19 12:55:00
9:15 AM,71.8,68.9,91,29.96,10.0,South,11.5,17.3,N/A,,Overcast,190,2013-04-19 13:15:00
9:35 AM,72.5,69.1,89,29.96,10.0,SSW,12.7,21.9,N/A,,Overcast,200,2013-04-19 13:35:00
9:55 AM,73.9,69.6,86,29.96,10.0,SSW,8.1,16.1,N/A,,Overcast,200,2013-04-19 13:55:00
10:15 AM,75.2,70.0,84,29.96,10.0,SSW,12.7,23.0,N/A,,Overcast,200,2013-04-19 14:15:00
10:55 AM,77.7,69.6,76,29.96,10.0,South,12.7,24.2,N/A,,Mostly Cloudy,190,2013-04-19 14:55:00
11:15 AM,77.9,69.4,75,29.95,10.0,SSW,12.7,19.6,N/A,,Mostly Cloudy,200,2013-04-19 15:15:00
11:35 AM,79.3,69.1,71,29.94,10.0,SSW,11.5,24.2,N/A,,Scattered Clouds,200,2013-04-19 15:35:00
11:55 AM,80.1,68.9,69,29.93,10.0,SSW,10.4,25.3,N/A,,Scattered Clouds,200,2013-04-19 15:55:00
12:15 PM,80.6,68.4,66,29.91,10.0,SSW,12.7,26.5,N/A,,Clear,200,2013-04-19 16:15:00
12:35 PM,81.1,67.6,63,29.90,10.0,SSW,13.8,19.6,N/A,,Scattered Clouds,210,2013-04-19 16:35:00
12:55 PM,82.0,67.5,61,29.90,10.0,SSW,6.9,19.6,N/A,,Mostly Cloudy,210,2013-04-19 16:55:00
1:15 PM,82.0,67.6,62,29.89,10.0,SW,10.4,21.9,N/A,,Mostly Cloudy,220,2013-04-19 17:15:00
1:35 PM,81.3,67.3,62,29.89,10.0,SSW,9.2,19.6,N/A,,Overcast,200,2013-04-19 17:35:00
1:55 PM,81.0,66.9,62,29.88,10.0,SSW,11.5,20.7,N/A,,Mostly Cloudy,200,2013-04-19 17:55:00
2:15 PM,81.5,67.5,62,29.87,10.0,SSW,10.4,16.1,N/A,,Mostly Cloudy,200,2013-04-19 18:15:00
2:35 PM,79.9,68.0,67,29.87,10.0,WSW,5.8,16.1,N/A,Rain,Light Rain,250,2013-04-19 18:35:00
2:55 PM,76.1,69.4,80,29.87,3.0,WSW,9.2,20.7,N/A,Rain,Light Rain,240,2013-04-19 18:55:00
3:15 PM,72.0,70.2,94,29.88,7.0,SSW,5.8,-,N/A,Rain,Heavy Rain,210,2013-04-19 19:15:00
3:35 PM,71.4,70.7,98,29.88,10.0,SW,4.6,-,N/A,,Overcast,220,2013-04-19 19:35:00
3:55 PM,71.4,70.3,96,29.88,10.0,SSW,4.6,-,N/A,,Mostly Cloudy,210,2013-04-19 19:55:00
4:15 PM,71.2,70.3,97,29.87,10.0,SSW,3.5,-,N/A,,Clear,210,2013-04-19 20:15:00
4:35 PM,71.2,70.7,98,29.88,10.0,SW,3.5,-,N/A,Rain,Light Rain,220,2013-04-19 20:35:00
4:55 PM,70.9,70.7,99,29.90,7.0,WSW,8.1,-,N/A,Rain,Rain,250,2013-04-19 20:55:00
5:15 PM,68.9,69.1,100,29.89,4.0,West,6.9,-,N/A,Rain,Light Rain,260,2013-04-19 21:15:00
5:35 PM,67.8,68.0,100,29.90,4.0,SW,4.6,-,N/A,Rain,Rain,230,2013-04-19 21:35:00
5:55 PM,67.6,67.8,100,29.91,4.0,West,3.5,-,N/A,Rain,Light Rain,270,2013-04-19 21:55:00
6:15 PM,64.6,63.9,98,29.94,10.0,WNW,10.4,21.9,N/A,,Overcast,300,2013-04-19 22:15:00
6:35 PM,60.1,59.7,99,29.95,10.0,WNW,9.2,20.7,N/A,Rain,Light Rain,300,2013-04-19 22:35:00
6:55 PM,59.0,58.5,98,29.94,10.0,WNW,4.6,-,N/A,Rain,Rain,300,2013-04-19 22:55:00
7:15 PM,58.3,57.6,97,29.93,10.0,WNW,3.5,-,N/A,,Overcast,300,2013-04-19 23:15:00
7:35 PM,57.7,56.8,97,29.93,10.0,West,3.5,-,N/A,,Overcast,270,2013-04-19 23:35:00
7:55 PM,57.4,56.7,97,29.94,10.0,West,5.8,-,N/A,,Mostly Cloudy,280,2013-04-19 23:55:00
8:15 PM,57.2,57.0,99,29.95,10.0,Calm,Calm,-,N/A,,Mostly Cloudy,0,2013-04-20 00:15:00
8:35 PM,57.0,57.2,100,29.95,10.0,West,3.5,-,N/A,,Overcast,270,2013-04-20 00:35:00
8:55 PM,56.8,57.2,100,29.97,10.0,WSW,4.6,-,N/A,Rain,Light Rain,250,2013-04-20 00:55:00
9:15 PM,56.7,56.8,100,29.99,10.0,West,4.6,-,N/A,Rain,Light Rain,280,2013-04-20 01:15:00
9:35 PM,56.5,56.7,100,30.01,10.0,West,5.8,-,N/A,Rain,Light Rain,280,2013-04-20 01:35:00
9:55 PM,56.3,56.5,100,30.00,10.0,NW,5.8,-,N/A,Rain,Light Rain,320,2013-04-20 01:55:00
10:15 PM,55.6,55.6,100,30.00,10.0,WNW,5.8,-,N/A,,Overcast,300,2013-04-20 02:15:00
10:35 PM,54.5,54.7,100,30.02,10.0,WNW,4.6,-,N/A,Rain,Light Rain,290,2013-04-20 02:35:00
10:55 PM,53.6,53.8,100,30.05,10.0,WNW,4.6,-,N/A,,Overcast,300,2013-04-20 02:55:00
11:15 PM,52.7,52.7,100,30.05,7.0,NW,5.8,-,N/A,Rain,Rain,320,2013-04-20 03:15:00
11:35 PM,52.0,52.0,100,30.05,10.0,NW,3.5,-,N/A,Rain,Light Rain,310,2013-04-20 03:35:00
11:55 PM,51.4,51.6,100,30.05,7.0,WNW,3.5,-,N/A,Rain,Rain,300,2013-04-20 03:55:00